{"data":{"norad_id":67736,"epoch":"2026-09-19T22:13:39.148320Z","epoch_age_seconds":116022,"freshness":"FRESH","line1":"1 67736U 26026R   26262.92614755  .00011362  00000+0  35367-3 0  9991","line2":"2 67736  97.2895 314.7835 0000179 128.4349 231.6910 15.33450546 33891","mean_motion":15.33450546,"eccentricity":1.79e-5,"inclination_deg":97.2895,"raan_deg":314.7835,"arg_perigee_deg":128.4349,"mean_anomaly_deg":231.691,"bstar":0.00035367,"rev_number":3389,"period_min":93.905865028138,"perigee_km":465.40417195405,"apogee_km":465.64917511356,"semimajor_km":6843.6636735338,"source":"CELESTRAK","updated_at":"2026-09-20T09:00:43.659563Z"}}